This is the latest recevied weather packets stored in our database for station/object W5GMO. If no packets are shown the sender has not sent any weather packets the latest 10 day(s).
| Time | Temp. | Humidity | Pressure | Rain* | Wind** | Luminosity | Snow |
|---|---|---|---|---|---|---|---|
| 1787861235 | 31.11° C | 1% | 1013.5 hPa | 0 mm | - | 316 W/m² | - |
| 1787860934 | 31.11° C | 1% | 1013.5 hPa | 0 mm | - | 359 W/m² | - |
| 1787860629 | 31.67° C | 1% | 1013.7 hPa | 0 mm | - | 375 W/m² | - |
| 1787860324 | 31.11° C | 1% | 1013.8 hPa | 0 mm | - | 425 W/m² | - |
| 1787860019 | 31.67° C | 1% | 1013.9 hPa | 0 mm | - | 350 W/m² | - |
| 1787859715 | 31.11° C | 1% | 1013.7 hPa | 0 mm | - | 403 W/m² | - |
| 1787859409 | 31.11° C | 1% | 1013.9 hPa | 0 mm | - | 249 W/m² | - |
| 1787859104 | 31.11° C | 1% | 1013.9 hPa | 0 mm | - | 459 W/m² | - |
| 1787858800 | 31.67° C | 1% | 1014.1 hPa | 0 mm | - | 430 W/m² | - |
| 1787858496 | 31.67° C | 1% | 1013.9 hPa | 0 mm | - | 441 W/m² | - |
| 1787858195 | 31.67° C | 1% | 1013.8 hPa | 0 mm | - | 451 W/m² | - |
| 1787857891 | 31.11° C | 1% | 1013.9 hPa | 0 mm | - | 481 W/m² | - |
| 1787857587 | 31.67° C | 1% | 1013.8 hPa | 0 mm | - | 401 W/m² | - |
| 1787857287 | 31.67° C | 1% | 1014 hPa | 0 mm | - | 543 W/m² | - |
| 1787856986 | 31.11° C | 1% | 1014 hPa | 0 mm | - | 435 W/m² | - |
| 1787856681 | 31.11° C | 1% | 1014.1 hPa | 0 mm | - | 550 W/m² | - |
| 1787856386 | 31.67° C | 1% | 1014.2 hPa | 0 mm | - | 540 W/m² | - |
| 1787856076 | 31.67° C | 1% | 1014.3 hPa | 0 mm | - | 444 W/m² | - |
| 1787855775 | 32.22° C | 1% | 1014.2 hPa | 0 mm | - | 629 W/m² | - |
| 1787855470 | 32.22° C | 1% | 1014.2 hPa | 0 mm | - | 585 W/m² | - |
| 1787855166 | 32.22° C | 1% | 1014.2 hPa | 0 mm | - | 630 W/m² | - |
| 1787854861 | 32.22° C | 1% | 1014.4 hPa | 0 mm | - | 607 W/m² | - |
| 1787854560 | 31.67° C | 1% | 1014.5 hPa | 0 mm | - | 616 W/m² | - |
| 1787854255 | 32.78° C | 1% | 1014.5 hPa | 0 mm | - | 683 W/m² | - |
| 1787853951 | 32.22° C | 1% | 1014.6 hPa | 0 mm | - | 753 W/m² | - |
* Rain latest hour (hover to see other rain measurements)
** Current wind speed in m/s (hover to see current wind gust speed)